EW7706 Weather Reports


Display with metric or nautical units.
time (UTC)temp
F
wind
direction
speed
MPH
gust
MPH
rain 1hr
in
rain 24hr
in
rain mn
in
humidity
%
barometer
mb
20260502233028 51 290 3.0 8.0 0.00 0.00 0.00 36 1015.6
20260502231528 51 290 1.0 10.0 0.00 0.00 0.00 36 1015.7
20260502230030 51 324 1.0 8.0 0.00 0.00 0.00 34 1015.8
20260502224530 51 268 2.0 9.0 0.00 0.00 0.00 35 1015.9
20260502223034 51 260 2.0 12.0 0.00 0.00 0.00 35 1015.8
20260502221529 52 259 3.0 10.0 0.00 0.00 0.00 35 1016.1
20260502220028 52 295 2.0 9.0 0.00 0.00 0.00 35 1016.0
20260502214530 53 209 3.0 11.0 0.00 0.00 0.00 37 1015.9
20260502213030 53 275 1.0 9.0 0.00 0.00 0.00 36 1016.1
20260502211540 54 283 5.0 11.0 0.00 0.00 0.00 35 1016.0
20260502210034 54 303 2.0 10.0 0.00 0.00 0.00 38 1016.1
20260502204527 52 287 5.0 14.0 0.00 0.00 0.00 40 1016.2
20260502203029 51 294 7.0 17.0 0.00 0.00 0.00 40 1016.5
20260502201528 51 269 6.0 14.0 0.00 0.00 0.00 41 1016.6
20260502200028 51 262 2.0 14.0 0.00 0.00 0.00 42 1016.7
20260502194530 52 0 5.0 13.0 0.00 0.00 0.00 42 1016.9
20260502193030 51 288 9.0 14.0 0.00 0.00 0.00 43 1017.2
20260502191527 51 0 2.0 11.0 0.00 0.00 0.00 43 1017.2
20260502190034 50 286 2.0 7.0 0.00 0.00 0.00 44 1017.5
20260502184545 51 244 3.0 12.0 0.00 0.00 0.00 42 1017.6
20260502183047 50 316 5.0 20.0 0.00 0.00 0.00 45 1017.7
20260502181538 49 294 4.0 11.0 0.00 0.00 0.00 47 1017.7
20260502163039 48 0 0.0 8.0 0.00 0.00 0.00 51 1018.6
20260502161528 47 313 1.0 10.0 0.00 0.00 0.00 51 1018.6
20260502151534 46 348 2.0 7.0 0.00 0.00 0.00 52 1018.6
20260502123028 39 43 2.0 7.0 0.00 0.00 0.00 77 1019.1
20260502121528 37 0 1.0 5.0 0.00 0.00 0.00 82 1019.1
20260502114527 33 0 0.0 1.0 0.00 0.00 0.00 87 1018.8
20260502113029 32 0 0.0 0.0 0.00 0.00 0.00 86 1018.8
20260502111528 31 0 0.0 0.0 0.00 0.00 0.00 84 1018.7
20260502110036 31 0 0.0 0.0 0.00 0.00 0.00 83 1018.6
20260502104527 32 0 0.0 0.0 0.00 0.00 0.00 83 1018.6
20260502103033 32 0 0.0 0.0 0.00 0.00 0.00 82 1018.7
20260502101544 33 0 0.0 0.0 0.00 0.00 0.00 81 1018.5
20260502091532 35 0 0.0 0.0 0.00 0.00 0.00 77 1018.4
20260502071529 37 0 0.0 0.0 0.00 0.00 0.00 74 1017.9
20260502070050 37 0 0.0 0.0 0.00 0.00 0.00 73 1018.1
20260502064529 37 0 0.0 0.0 0.00 0.00 0.00 73 1018.1
20260502063036 37 0 0.0 2.0 0.00 0.00 0.00 72 1018.2
20260502061527 37 0 0.0 2.0 0.00 0.00 0.00 71 1018.2
20260502060030 37 0 0.0 1.0 0.00 0.00 0.00 70 1018.3
20260502054530 37 0 0.0 1.0 0.00 0.00 0.00 70 1018.3
20260502053027 37 298 0.0 1.0 0.00 0.00 0.00 70 1018.3
20260502051531 38 298 0.0 1.0 0.00 0.00 0.00 70 1018.2
20260502050028 38 0 0.0 1.0 0.00 0.00 0.00 69 1018.2
20260502044528 38 0 0.0 3.0 0.00 0.00 0.00 67 1018.1
20260502043031 38 0 0.0 3.0 0.00 0.00 0.00 67 1018.1
20260502041528 39 0 1.0 4.0 0.00 0.00 0.00 66 1017.9
20260502040029 39 337 1.0 8.0 0.00 0.00 0.00 65 1017.9
20260502034530 39 5 1.0 7.0 0.00 0.00 0.00 65 1017.8
20260502033029 39 340 1.0 4.0 0.00 0.00 0.00 65 1017.8
20260502031528 39 330 1.0 6.0 0.00 0.00 0.00 64 1017.7
20260502030028 40 0 1.0 6.0 0.00 0.00 0.00 63 1017.7
20260502024533 40 315 1.0 5.0 0.00 0.00 0.00 62 1017.7
20260502023028 40 343 1.0 6.0 0.00 0.00 0.00 60 1017.6
20260502021530 40 348 0.0 3.0 0.00 0.00 0.00 58 1017.5
20260502020031 40 355 1.0 4.0 0.00 0.00 0.00 54 1017.4
20260502014530 40 0 0.0 4.0 0.00 0.00 0.00 53 1017.4
20260502013040 41 344 1.0 3.0 0.00 0.00 0.00 52 1017.1
20260502011531 41 319 1.0 5.0 0.00 0.00 0.00 52 1017.0
20260502010027 42 26 1.0 5.0 0.00 0.00 0.00 51 1016.9
20260502004529 43 343 2.0 10.0 0.00 0.00 0.00 50 1016.9
20260502003031 43 333 2.0 9.0 0.00 0.00 0.00 50 1016.8
20260502001530 44 323 2.0 7.0 0.00 0.00 0.00 47 1016.4
20260502000031 44 324 1.0 5.0 0.00 0.00 0.00 51 1016.3
20260501234530 45 331 0.0 4.0 0.00 0.00 0.00 49 1016.1